| time (UTC) | temp C | wind direction | speed KPH | gust KPH | rain 1hr cm | rain 24hr cm | rain mn cm | humidity % | barometer mb |
| 20260831112507 | 16 | 175 | 0.0 | 0.0 | 0.00 | 0.15 | 0.00 | 94 | 1019.1 |
| 20260831112005 | 16 | 175 | 0.0 | 0.0 | 0.00 | 0.15 | 0.00 | 94 | 1019.1 |
| 20260831111505 | 16 | 175 | 0.0 | 0.0 | 0.00 | 0.15 | 0.00 | 94 | 1018.8 |
| 20260831111004 | 16 | 175 | 0.0 | 0.0 | 0.00 | 0.15 | 0.00 | 94 | 1018.8 |
| 20260831110504 | 16 | 175 | 0.0 | 0.0 | 0.00 | 0.15 | 0.00 | 94 | 1018.8 |
| 20260831110004 | 16 | 175 | 0.0 | 0.0 | 0.00 | 0.15 | 0.00 | 94 | 1018.8 |
| 20260831105507 | 16 | 175 | 0.0 | 0.0 | 0.00 | 0.15 | 0.00 | 94 | 1018.7 |
| 20260831105004 | 16 | 175 | 0.0 | 0.0 | 0.00 | 0.15 | 0.00 | 94 | 1018.5 |
| 20260831104513 | 16 | 175 | 0.0 | 0.0 | 0.00 | 0.15 | 0.00 | 94 | 1018.6 |
| 20260831104003 | 16 | 175 | 0.0 | 0.0 | 0.00 | 0.15 | 0.00 | 94 | 1018.6 |
| 20260831103503 | 16 | 198 | 0.0 | 0.0 | 0.00 | 0.15 | 0.00 | 94 | 1018.4 |
| 20260831103013 | 16 | 198 | 0.0 | 3.2 | 0.00 | 0.15 | 0.00 | 94 | 1018.3 |
| 20260831102505 | 16 | 200 | 0.0 | 3.2 | 0.00 | 0.15 | 0.00 | 94 | 1018.4 |
| 20260831102003 | 16 | 197 | 0.0 | 4.8 | 0.00 | 0.15 | 0.00 | 94 | 1018.3 |
| 20260831101503 | 16 | 193 | 1.6 | 4.8 | 0.00 | 0.15 | 0.00 | 94 | 1018.4 |
| 20260831101001 | 16 | 193 | 1.6 | 4.8 | 0.00 | 0.15 | 0.00 | 94 | 1018.3 |
| 20260831100501 | 16 | 194 | 0.0 | 4.8 | 0.00 | 0.15 | 0.00 | 94 | 1018.3 |
| 20260831100001 | 16 | 195 | 0.0 | 3.2 | 0.00 | 0.15 | 0.00 | 94 | 1018.3 |
| 20260831095501 | 16 | 195 | 0.0 | 6.4 | 0.00 | 0.15 | 0.00 | 94 | 1018.2 |
| 20260831095001 | 16 | 195 | 0.0 | 6.4 | 0.00 | 0.15 | 0.00 | 94 | 1018.2 |
| 20260831094501 | 16 | 225 | 0.0 | 0.0 | 0.00 | 0.15 | 0.00 | 94 | 1018.1 |
| 20260831094001 | 16 | 230 | 0.0 | 0.0 | 0.00 | 0.15 | 0.00 | 94 | 1018.1 |
| 20260831093601 | 16 | 230 | 0.0 | 4.8 | 0.00 | 0.15 | 0.00 | 94 | 1018.1 |
| 20260831093113 | 16 | 240 | 1.6 | 4.8 | 0.00 | 0.15 | 0.00 | 94 | 1018.1 |
| 20260831092600 | 16 | 242 | 1.6 | 4.8 | 0.00 | 0.15 | 0.00 | 94 | 1018.2 |
| 20260831092059 | 16 | 254 | 0.0 | 4.8 | 0.00 | 0.15 | 0.00 | 94 | 1018.3 |
| 20260831091602 | 16 | 274 | 0.0 | 0.0 | 0.00 | 0.15 | 0.00 | 94 | 1018.3 |
| 20260831091059 | 16 | 302 | 0.0 | 0.0 | 0.00 | 0.15 | 0.00 | 94 | 1018.1 |
| 20260831090600 | 16 | 302 | 0.0 | 0.0 | 0.00 | 0.15 | 0.00 | 94 | 1018.1 |
| 20260831090123 | 16 | 360 | 0.0 | 0.0 | 0.00 | 0.15 | 0.00 | 94 | 1018.1 |
| 20260831085559 | 16 | 274 | 0.0 | 0.0 | 0.00 | 0.15 | 0.00 | 94 | 1018.1 |
| 20260831085100 | 16 | 303 | 0.0 | 0.0 | 0.00 | 0.15 | 0.00 | 94 | 1018.0 |
| 20260831084557 | 16 | 303 | 0.0 | 0.0 | 0.00 | 0.15 | 0.00 | 94 | 1018.0 |
| 20260831084101 | 16 | 303 | 0.0 | 0.0 | 0.00 | 0.15 | 0.00 | 94 | 1018.2 |
| 20260831083557 | 16 | 303 | 0.0 | 0.0 | 0.00 | 0.15 | 0.00 | 94 | 1018.0 |
| 20260831083109 | 16 | 303 | 0.0 | 0.0 | 0.00 | 0.15 | 0.00 | 94 | 1018.0 |
| 20260831082557 | 16 | 303 | 0.0 | 0.0 | 0.00 | 0.15 | 0.00 | 94 | 1018.1 |
| 20260831082057 | 16 | 360 | 0.0 | 0.0 | 0.00 | 0.15 | 0.00 | 94 | 1018.0 |
| 20260831081601 | 16 | 360 | 0.0 | 0.0 | 0.00 | 0.15 | 0.00 | 94 | 1018.0 |
| 20260831081056 | 16 | 360 | 0.0 | 0.0 | 0.00 | 0.15 | 0.00 | 94 | 1017.9 |
| 20260831080558 | 16 | 360 | 0.0 | 0.0 | 0.00 | 0.15 | 0.00 | 94 | 1018.1 |
| 20260831080126 | 16 | 303 | 0.0 | 0.0 | 0.00 | 0.15 | 0.00 | 94 | 1018.1 |
| 20260831075556 | 16 | 303 | 0.0 | 0.0 | 0.00 | 0.15 | 0.00 | 94 | 1018.1 |
| 20260831075055 | 16 | 303 | 0.0 | 0.0 | 0.00 | 0.15 | 0.00 | 94 | 1018.1 |
| 20260831074555 | 16 | 303 | 0.0 | 0.0 | 0.00 | 0.15 | 0.00 | 94 | 1018.0 |
| 20260831074056 | 16 | 303 | 0.0 | 0.0 | 0.00 | 0.15 | 0.00 | 94 | 1018.1 |
| 20260831073555 | 16 | 303 | 0.0 | 3.2 | 0.00 | 0.15 | 0.00 | 94 | 1018.1 |
| 20260831073055 | 16 | 303 | 0.0 | 3.2 | 0.00 | 0.15 | 0.00 | 94 | 1018.1 |
| 20260831072554 | 16 | 303 | 0.0 | 3.2 | 0.00 | 0.15 | 0.00 | 94 | 1018.1 |
| 20260831072053 | 16 | 302 | 0.0 | 3.2 | 0.00 | 0.15 | 0.00 | 94 | 1018.1 |
| 20260831071555 | 16 | 302 | 0.0 | 4.8 | 0.00 | 0.15 | 0.00 | 94 | 1018.1 |
| 20260831071053 | 16 | 302 | 0.0 | 6.4 | 0.00 | 0.15 | 0.00 | 94 | 1018.1 |
| 20260831070553 | 16 | 303 | 0.0 | 6.4 | 0.00 | 0.15 | 0.00 | 94 | 1018.0 |
| 20260831070053 | 16 | 302 | 0.0 | 3.2 | 0.00 | 0.15 | 0.00 | 94 | 1018.0 |
| 20260831065552 | 16 | 302 | 0.0 | 4.8 | 0.00 | 0.15 | 0.00 | 94 | 1017.9 |
| 20260831065052 | 16 | 302 | 1.6 | 4.8 | 0.00 | 0.15 | 0.00 | 94 | 1017.8 |
| 20260831064552 | 16 | 309 | 0.0 | 0.0 | 0.00 | 0.15 | 0.00 | 94 | 1017.8 |
| 20260831064051 | 16 | 309 | 0.0 | 0.0 | 0.00 | 0.15 | 0.00 | 94 | 1017.9 |
| 20260831063551 | 16 | 309 | 0.0 | 0.0 | 0.00 | 0.15 | 0.00 | 94 | 1017.8 |
| 20260831063107 | 16 | 309 | 0.0 | 0.0 | 0.00 | 0.15 | 0.00 | 94 | 1017.9 |
| 20260831062550 | 16 | 309 | 0.0 | 0.0 | 0.00 | 0.15 | 0.00 | 94 | 1018.0 |
| 20260831062052 | 16 | 309 | 0.0 | 0.0 | 0.00 | 0.15 | 0.00 | 94 | 1018.0 |
| 20260831061550 | 16 | 309 | 0.0 | 0.0 | 0.00 | 0.15 | 0.00 | 94 | 1018.1 |
| 20260831061048 | 16 | 309 | 0.0 | 0.0 | 0.00 | 0.15 | 0.00 | 94 | 1018.1 |
| 20260831060548 | 16 | 309 | 0.0 | 0.0 | 0.00 | 0.15 | 0.00 | 94 | 1018.2 |
| 20260831060049 | 16 | 309 | 0.0 | 0.0 | 0.00 | 0.15 | 0.00 | 94 | 1018.2 |
| 20260831055547 | 16 | 309 | 0.0 | 0.0 | 0.00 | 0.15 | 0.00 | 94 | 1018.3 |
| 20260831055047 | 16 | 310 | 0.0 | 0.0 | 0.00 | 0.15 | 0.00 | 94 | 1018.3 |
| 20260831054547 | 16 | 310 | 0.0 | 0.0 | 0.00 | 0.15 | 0.00 | 94 | 1018.4 |
| 20260831054047 | 16 | 310 | 0.0 | 0.0 | 0.00 | 0.15 | 0.00 | 94 | 1018.4 |
| 20260831053547 | 16 | 310 | 0.0 | 0.0 | 0.00 | 0.00 | 0.00 | 94 | 1018.5 |
| 20260831053122 | 16 | 310 | 0.0 | 0.0 | 0.00 | 0.15 | 0.00 | 94 | 1018.5 |
| 20260831052548 | 16 | 310 | 0.0 | 0.0 | 0.00 | 0.15 | 0.00 | 94 | 1018.5 |
| 20260831052046 | 16 | 310 | 0.0 | 0.0 | 0.00 | 0.15 | 0.00 | 94 | 1018.4 |
| 20260831051546 | 16 | 310 | 0.0 | 0.0 | 0.00 | 0.15 | 0.00 | 94 | 1018.4 |
| 20260831051045 | 16 | 310 | 0.0 | 0.0 | 0.00 | 0.15 | 0.00 | 94 | 1018.3 |
| 20260831050545 | 16 | 310 | 0.0 | 1.6 | 0.00 | 0.15 | 0.00 | 94 | 1018.2 |
| 20260831050044 | 16 | 310 | 0.0 | 4.8 | 0.00 | 0.15 | 0.00 | 94 | 1018.3 |
| 20260831045544 | 16 | 310 | 0.0 | 4.8 | 0.00 | 0.15 | 0.00 | 94 | 1018.3 |
| 20260831045043 | 16 | 309 | 0.0 | 4.8 | 0.00 | 0.15 | 0.00 | 93 | 1018.4 |
| 20260831044635 | 16 | 309 | 1.6 | 6.4 | 0.00 | 0.15 | 0.00 | 93 | 1018.4 |
| 20260831044042 | 16 | 309 | 3.2 | 6.4 | 0.00 | 0.15 | 0.00 | 93 | 1018.5 |
| 20260831043542 | 16 | 284 | 1.6 | 4.8 | 0.00 | 0.15 | 0.00 | 93 | 1018.7 |
| 20260831043042 | 16 | 304 | 1.6 | 4.8 | 0.03 | 0.15 | 0.00 | 93 | 1018.7 |
| 20260831042541 | 16 | 303 | 1.6 | 6.4 | 0.03 | 0.15 | 0.00 | 94 | 1018.7 |
| 20260831042041 | 16 | 291 | 1.6 | 6.4 | 0.05 | 0.15 | 0.00 | 93 | 1018.6 |
| 20260831041544 | 16 | 286 | 0.0 | 3.2 | 0.05 | 0.15 | 0.00 | 93 | 1018.7 |
| 20260831041040 | 16 | 285 | 0.0 | 0.0 | 0.05 | 0.15 | 0.00 | 93 | 1018.6 |
| 20260831040540 | 16 | 284 | 0.0 | 0.0 | 0.05 | 0.15 | 0.00 | 93 | 1018.6 |
| 20260831040039 | 16 | 284 | 0.0 | 3.2 | 0.05 | 0.15 | 0.00 | 93 | 1018.7 |
| 20260831035539 | 16 | 284 | 0.0 | 6.4 | 0.05 | 0.15 | 0.15 | 93 | 1018.7 |
| 20260831035039 | 16 | 284 | 0.0 | 6.4 | 0.08 | 0.15 | 0.15 | 93 | 1018.8 |
| 20260831034538 | 16 | 302 | 0.0 | 4.8 | 0.08 | 0.15 | 0.15 | 93 | 1018.8 |
| 20260831034038 | 16 | 298 | 0.0 | 6.4 | 0.08 | 0.15 | 0.15 | 93 | 1018.8 |
| 20260831033538 | 16 | 298 | 1.6 | 6.4 | 0.08 | 0.15 | 0.15 | 93 | 1018.7 |
| 20260831033052 | 16 | 273 | 0.0 | 0.0 | 0.05 | 0.13 | 0.13 | 93 | 1018.7 |
| 20260831032540 | 16 | 270 | 0.0 | 6.4 | 0.05 | 0.13 | 0.13 | 93 | 1018.7 |
| 20260831032036 | 16 | 270 | 0.0 | 6.4 | 0.03 | 0.10 | 0.10 | 93 | 1018.8 |
| 20260831031538 | 16 | 290 | 0.0 | 0.0 | 0.03 | 0.10 | 0.10 | 93 | 1018.8 |
| 20260831031036 | 16 | 360 | 0.0 | 0.0 | 0.03 | 0.10 | 0.10 | 93 | 1018.7 |
| 20260831030536 | 16 | 360 | 0.0 | 1.6 | 0.03 | 0.10 | 0.10 | 93 | 1018.6 |
| 20260831030036 | 16 | 296 | 0.0 | 4.8 | 0.03 | 0.10 | 0.10 | 93 | 1018.6 |
| 20260831025536 | 16 | 300 | 0.0 | 4.8 | 0.03 | 0.10 | 0.10 | 93 | 1018.7 |
| 20260831025037 | 16 | 293 | 0.0 | 3.2 | 0.00 | 0.08 | 0.08 | 93 | 1018.6 |
| 20260831024536 | 16 | 293 | 0.0 | 6.4 | 0.00 | 0.08 | 0.08 | 93 | 1018.6 |
| 20260831024038 | 16 | 293 | 1.6 | 8.0 | 0.00 | 0.08 | 0.08 | 93 | 1018.6 |
| 20260831023535 | 16 | 281 | 1.6 | 8.0 | 0.00 | 0.08 | 0.08 | 93 | 1018.6 |
| 20260831023035 | 16 | 264 | 0.0 | 9.7 | 0.00 | 0.08 | 0.08 | 93 | 1018.5 |
| 20260831022536 | 16 | 271 | 1.6 | 9.7 | 0.00 | 0.08 | 0.08 | 93 | 1018.4 |
| 20260831022035 | 16 | 298 | 3.2 | 8.0 | 0.00 | 0.08 | 0.08 | 93 | 1018.4 |
| 20260831021535 | 16 | 294 | 1.6 | 9.7 | 0.00 | 0.08 | 0.08 | 93 | 1018.5 |
| 20260831021035 | 16 | 290 | 0.0 | 8.0 | 0.00 | 0.08 | 0.08 | 93 | 1018.4 |
| 20260831020535 | 16 | 288 | 1.6 | 8.0 | 0.00 | 0.08 | 0.08 | 93 | 1018.4 |
| 20260831020035 | 16 | 293 | 3.2 | 9.7 | 0.00 | 0.08 | 0.08 | 93 | 1018.4 |
| 20260831015534 | 16 | 297 | 0.0 | 11.3 | 0.00 | 0.08 | 0.08 | 93 | 1018.3 |
| 20260831015034 | 16 | 304 | 3.2 | 11.3 | 0.00 | 0.08 | 0.08 | 93 | 1018.4 |
| 20260831014534 | 16 | 259 | 0.0 | 6.4 | 0.00 | 0.08 | 0.08 | 93 | 1018.4 |
| 20260831014034 | 16 | 269 | 1.6 | 8.0 | 0.00 | 0.08 | 0.08 | 93 | 1018.4 |
| 20260831013533 | 16 | 252 | 1.6 | 8.0 | 0.00 | 0.08 | 0.08 | 93 | 1018.5 |
| 20260831013036 | 16 | 249 | 0.0 | 6.4 | 0.00 | 0.08 | 0.08 | 93 | 1018.5 |
| 20260831012534 | 16 | 299 | 0.0 | 8.0 | 0.00 | 0.08 | 0.08 | 93 | 1018.5 |
| 20260831012034 | 16 | 304 | 0.0 | 8.0 | 0.00 | 0.08 | 0.08 | 93 | 1018.5 |
| 20260831011533 | 16 | 302 | 1.6 | 6.4 | 0.00 | 0.08 | 0.08 | 93 | 1018.5 |
| 20260831011032 | 16 | 267 | 1.6 | 8.0 | 0.00 | 0.08 | 0.08 | 93 | 1018.4 |
| 20260831010532 | 16 | 290 | 0.0 | 12.9 | 0.00 | 0.08 | 0.08 | 93 | 1018.3 |
| 20260831010053 | 16 | 306 | 1.6 | 12.9 | 0.00 | 0.08 | 0.08 | 93 | 1018.3 |
| 20260831005532 | 16 | 360 | 3.2 | 6.4 | 0.00 | 0.08 | 0.08 | 93 | 1018.2 |
| 20260831005032 | 16 | 298 | 1.6 | 8.0 | 0.00 | 0.08 | 0.08 | 93 | 1018.2 |
| 20260831004532 | 16 | 287 | 1.6 | 9.7 | 0.00 | 0.08 | 0.08 | 93 | 1018.0 |
| 20260831004032 | 16 | 292 | 3.2 | 9.7 | 0.00 | 0.08 | 0.08 | 92 | 1018.0 |
| 20260831003531 | 16 | 288 | 3.2 | 8.0 | 0.00 | 0.08 | 0.08 | 92 | 1017.9 |
| 20260831003034 | 16 | 360 | 1.6 | 6.4 | 0.00 | 0.08 | 0.08 | 92 | 1017.8 |
| 20260831002531 | 16 | 288 | 1.6 | 8.0 | 0.00 | 0.08 | 0.08 | 92 | 1017.7 |
| 20260831002031 | 16 | 296 | 3.2 | 12.9 | 0.00 | 0.08 | 0.08 | 92 | 1017.5 |
| 20260831001531 | 16 | 297 | 1.6 | 12.9 | 0.00 | 0.08 | 0.08 | 92 | 1017.4 |
| 20260831001031 | 16 | 282 | 1.6 | 6.4 | 0.00 | 0.08 | 0.08 | 92 | 1017.3 |
| 20260831000530 | 16 | 275 | 1.6 | 8.0 | 0.00 | 0.08 | 0.08 | 92 | 1017.2 |
| 20260831000030 | 16 | 266 | 3.2 | 11.3 | 0.00 | 0.08 | 0.08 | 92 | 1017.2 |
| 20260830235530 | 16 | 298 | 3.2 | 11.3 | 0.00 | 0.08 | 0.08 | 92 | 1017.0 |
| 20260830235029 | 16 | 299 | 0.0 | 8.0 | 0.00 | 0.08 | 0.08 | 92 | 1017.0 |
| 20260830234530 | 16 | 280 | 1.6 | 8.0 | 0.00 | 0.08 | 0.08 | 92 | 1017.0 |
| 20260830234029 | 16 | 360 | 1.6 | 8.0 | 0.00 | 0.08 | 0.08 | 92 | 1017.0 |
| 20260830233529 | 16 | 301 | 0.0 | 4.8 | 0.00 | 0.08 | 0.08 | 92 | 1016.9 |
| 20260830233036 | 16 | 360 | 1.6 | 6.4 | 0.00 | 0.08 | 0.08 | 92 | 1016.8 |
| 20260830232529 | 16 | 300 | 0.0 | 6.4 | 0.00 | 0.08 | 0.08 | 92 | 1016.8 |
| 20260830232028 | 16 | 308 | 0.0 | 4.8 | 0.00 | 0.08 | 0.08 | 92 | 1016.7 |
| 20260830231529 | 16 | 238 | 1.6 | 4.8 | 0.00 | 0.08 | 0.08 | 92 | 1016.7 |
| 20260830231028 | 16 | 207 | 0.0 | 3.2 | 0.00 | 0.08 | 0.08 | 92 | 1016.7 |
| 20260830230528 | 16 | 207 | 0.0 | 4.8 | 0.00 | 0.08 | 0.08 | 92 | 1016.7 |
| 20260830230028 | 16 | 287 | 0.0 | 4.8 | 0.00 | 0.08 | 0.08 | 92 | 1016.7 |
| 20260830225528 | 16 | 261 | 0.0 | 4.8 | 0.00 | 0.08 | 0.08 | 92 | 1016.7 |
| 20260830225028 | 16 | 261 | 1.6 | 4.8 | 0.00 | 0.08 | 0.08 | 92 | 1016.7 |
| 20260830224528 | 16 | 281 | 0.0 | 4.8 | 0.00 | 0.08 | 0.08 | 92 | 1016.7 |
| 20260830224028 | 16 | 269 | 0.0 | 0.0 | 0.00 | 0.08 | 0.08 | 92 | 1016.7 |
| 20260830223528 | 16 | 293 | 0.0 | 4.8 | 0.00 | 0.08 | 0.08 | 92 | 1016.8 |
| 20260830223033 | 16 | 360 | 0.0 | 6.4 | 0.03 | 0.08 | 0.08 | 92 | 1016.7 |
| 20260830222527 | 16 | 292 | 1.6 | 6.4 | 0.03 | 0.08 | 0.08 | 92 | 1016.7 |
| 20260830222027 | 16 | 360 | 0.0 | 3.2 | 0.03 | 0.08 | 0.08 | 92 | 1016.7 |
| 20260830221527 | 16 | 360 | 0.0 | 4.8 | 0.03 | 0.08 | 0.08 | 92 | 1016.8 |
| 20260830221030 | 16 | 360 | 1.6 | 4.8 | 0.03 | 0.08 | 0.08 | 91 | 1016.8 |
| 20260830220526 | 16 | 360 | 0.0 | 0.0 | 0.03 | 0.08 | 0.08 | 91 | 1016.9 |
| 20260830220026 | 16 | 360 | 0.0 | 0.0 | 0.03 | 0.08 | 0.08 | 91 | 1016.9 |
| 20260830215526 | 16 | 360 | 0.0 | 0.0 | 0.03 | 0.08 | 0.08 | 91 | 1016.9 |
| 20260830215025 | 16 | 304 | 0.0 | 0.0 | 0.05 | 0.08 | 0.08 | 91 | 1017.0 |
| 20260830214526 | 16 | 305 | 0.0 | 0.0 | 0.05 | 0.08 | 0.08 | 91 | 1016.9 |
| 20260830214025 | 16 | 305 | 0.0 | 0.0 | 0.05 | 0.08 | 0.08 | 91 | 1017.0 |
| 20260830213529 | 16 | 305 | 0.0 | 1.6 | 0.05 | 0.08 | 0.08 | 91 | 1016.9 |
| 20260830213045 | 16 | 305 | 0.0 | 4.8 | 0.03 | 0.05 | 0.05 | 91 | 1016.9 |
| 20260830212525 | 16 | 305 | 1.6 | 6.4 | 0.03 | 0.05 | 0.05 | 91 | 1017.0 |
| 20260830212025 | 16 | 305 | 3.2 | 6.4 | 0.03 | 0.05 | 0.05 | 91 | 1017.0 |
| 20260830211525 | 16 | 290 | 0.0 | 6.4 | 0.05 | 0.05 | 0.05 | 90 | 1017.0 |
| 20260830211025 | 16 | 291 | 1.6 | 6.4 | 0.05 | 0.05 | 0.05 | 90 | 1017.0 |
| 20260830210525 | 16 | 273 | 1.6 | 8.0 | 0.05 | 0.05 | 0.05 | 90 | 1017.1 |
| 20260830210026 | 16 | 302 | 3.2 | 14.5 | 0.05 | 0.05 | 0.05 | 90 | 1017.2 |
| 20260830205527 | 16 | 259 | 3.2 | 14.5 | 0.05 | 0.05 | 0.05 | 89 | 1017.2 |
| 20260830205024 | 16 | 306 | 4.8 | 14.5 | 0.03 | 0.03 | 0.03 | 89 | 1017.3 |
| 20260830204536 | 17 | 294 | 6.4 | 14.5 | 0.03 | 0.03 | 0.03 | 89 | 1017.3 |
| 20260830204023 | 17 | 282 | 6.4 | 14.5 | 0.03 | 0.03 | 0.03 | 88 | 1017.2 |
| 20260830203524 | 17 | 287 | 3.2 | 9.7 | 0.03 | 0.03 | 0.03 | 87 | 1017.2 |
| 20260830203023 | 17 | 293 | 4.8 | 16.1 | 0.03 | 0.03 | 0.03 | 86 | 1017.2 |
| 20260830202522 | 17 | 360 | 4.8 | 17.7 | 0.03 | 0.03 | 0.03 | 85 | 1017.2 |
| 20260830202022 | 18 | 360 | 9.7 | 17.7 | 0.03 | 0.03 | 0.03 | 83 | 1017.2 |
| 20260830201520 | 18 | 288 | 6.4 | 20.9 | 0.00 | 0.00 | 0.00 | 81 | 1017.1 |
| 20260830201019 | 18 | 315 | 9.7 | 20.9 | 0.00 | 0.00 | 0.00 | 78 | 1017.0 |
| 20260830200519 | 19 | 302 | 9.7 | 20.9 | 0.00 | 0.00 | 0.00 | 75 | 1016.9 |
| 20260830200019 | 20 | 295 | 12.9 | 20.9 | 0.00 | 0.00 | 0.00 | 71 | 1016.8 |
| 20260830195519 | 20 | 313 | 8.0 | 16.1 | 0.00 | 0.00 | 0.00 | 69 | 1016.8 |
| 20260830195019 | 20 | 297 | 1.6 | 14.5 | 0.00 | 0.00 | 0.00 | 68 | 1016.7 |
| 20260830194521 | 20 | 254 | 4.8 | 14.5 | 0.00 | 0.00 | 0.00 | 67 | 1016.7 |
| 20260830194020 | 20 | 277 | 6.4 | 12.9 | 0.00 | 0.00 | 0.00 | 66 | 1016.7 |
| 20260830193517 | 20 | 275 | 4.8 | 14.5 | 0.00 | 0.00 | 0.00 | 66 | 1016.8 |
| 20260830193029 | 20 | 310 | 4.8 | 12.9 | 0.00 | 0.00 | 0.00 | 67 | 1016.7 |
| 20260830192517 | 20 | 300 | 4.8 | 14.5 | 0.00 | 0.00 | 0.00 | 67 | 1016.7 |
| 20260830192018 | 20 | 279 | 6.4 | 14.5 | 0.00 | 0.00 | 0.00 | 65 | 1016.7 |
| 20260830191528 | 21 | 318 | 6.4 | 12.9 | 0.00 | 0.00 | 0.00 | 65 | 1016.7 |
| 20260830191017 | 21 | 291 | 4.8 | 9.7 | 0.00 | 0.00 | 0.00 | 65 | 1016.7 |
| 20260830190516 | 21 | 321 | 4.8 | 9.7 | 0.00 | 0.00 | 0.00 | 63 | 1016.7 |
| 20260830190016 | 21 | 303 | 3.2 | 8.0 | 0.00 | 0.00 | 0.00 | 62 | 1016.8 |
| 20260830185517 | 21 | 294 | 0.0 | 12.9 | 0.00 | 0.00 | 0.00 | 62 | 1016.8 |
| 20260830185019 | 21 | 295 | 4.8 | 14.5 | 0.00 | 0.00 | 0.00 | 61 | 1016.8 |
| 20260830184519 | 22 | 295 | 6.4 | 16.1 | 0.00 | 0.00 | 0.00 | 60 | 1016.9 |
| 20260830184014 | 22 | 298 | 8.0 | 16.1 | 0.00 | 0.00 | 0.00 | 58 | 1016.9 |
| 20260830183514 | 22 | 309 | 1.6 | 14.5 | 0.00 | 0.00 | 0.00 | 63 | 1016.9 |
| 20260830183014 | 22 | 302 | 4.8 | 8.0 | 0.00 | 0.00 | 0.00 | 60 | 1016.9 |
| 20260830182514 | 22 | 256 | 1.6 | 6.4 | 0.00 | 0.00 | 0.00 | 62 | 1016.9 |
| 20260830182013 | 22 | 322 | 0.0 | 4.8 | 0.00 | 0.00 | 0.00 | 60 | 1016.9 |
| 20260830181513 | 21 | 244 | 1.6 | 4.8 | 0.00 | 0.00 | 0.00 | 62 | 1017.0 |
| 20260830181012 | 22 | 200 | 0.0 | 8.0 | 0.00 | 0.00 | 0.00 | 61 | 1017.1 |
| 20260830180511 | 22 | 288 | 1.6 | 8.0 | 0.00 | 0.00 | 0.00 | 61 | 1017.1 |
| 20260830180015 | 22 | 179 | 3.2 | 6.4 | 0.00 | 0.00 | 0.00 | 60 | 1017.0 |
| 20260830175511 | 21 | 194 | 0.0 | 4.8 | 0.00 | 0.00 | 0.00 | 60 | 1017.0 |
| 20260830175012 | 21 | 231 | 0.0 | 6.4 | 0.00 | 0.00 | 0.00 | 61 | 1017.1 |
| 20260830174510 | 21 | 290 | 1.6 | 9.7 | 0.00 | 0.00 | 0.00 | 61 | 1017.0 |
| 20260830174008 | 21 | 316 | 3.2 | 9.7 | 0.00 | 0.00 | 0.00 | 61 | 1017.1 |
| 20260830173508 | 21 | 220 | 1.6 | 6.4 | 0.00 | 0.00 | 0.00 | 64 | 1017.0 |
| 20260830173006 | 21 | 266 | 0.0 | 6.4 | 0.00 | 0.00 | 0.00 | 61 | 1017.1 |
| 20260830172506 | 21 | 244 | 1.6 | 12.9 | 0.00 | 0.00 | 0.00 | 61 | 1017.1 |
| 20260830172006 | 21 | 248 | 4.8 | 12.9 | 0.00 | 0.00 | 0.00 | 61 | 1017.1 |
| 20260830171505 | 21 | 259 | 0.0 | 8.0 | 0.00 | 0.00 | 0.00 | 66 | 1017.3 |
| 20260830171004 | 21 | 227 | 3.2 | 8.0 | 0.00 | 0.00 | 0.00 | 64 | 1017.5 |
| 20260830170503 | 21 | 157 | 1.6 | 9.7 | 0.00 | 0.00 | 0.00 | 63 | 1017.5 |
| 20260830170001 | 21 | 223 | 1.6 | 9.7 | 0.00 | 0.00 | 0.00 | 63 | 1017.6 |
| 20260830165501 | 21 | 308 | 0.0 | 9.7 | 0.00 | 0.00 | 0.00 | 64 | 1017.7 |
| 20260830165002 | 21 | 225 | 0.0 | 9.7 | 0.00 | 0.00 | 0.00 | 65 | 1017.7 |
| 20260830164604 | 20 | 220 | 0.0 | 8.0 | 0.00 | 0.00 | 0.00 | 65 | 1017.6 |
| 20260830164059 | 20 | 67 | 0.0 | 8.0 | 0.00 | 0.00 | 0.00 | 64 | 1017.8 |
| 20260830163600 | 20 | 206 | 1.6 | 8.0 | 0.00 | 0.00 | 0.00 | 64 | 1017.9 |
| 20260830163102 | 20 | 221 | 1.6 | 9.7 | 0.00 | 0.00 | 0.00 | 62 | 1017.9 |
| 20260830162558 | 20 | 192 | 3.2 | 9.7 | 0.00 | 0.00 | 0.00 | 64 | 1017.9 |
| 20260830162058 | 21 | 66 | 1.6 | 8.0 | 0.00 | 0.00 | 0.00 | 64 | 1017.9 |
| 20260830161618 | 20 | 188 | 3.2 | 8.0 | 0.00 | 0.00 | 0.00 | 65 | 1017.9 |
| 20260830161055 | 21 | 144 | 1.6 | 12.9 | 0.00 | 0.00 | 0.00 | 63 | 1018.0 |
| 20260830160554 | 20 | 210 | 1.6 | 12.9 | 0.00 | 0.00 | 0.00 | 63 | 1018.1 |
| 20260830160054 | 20 | 125 | 1.6 | 6.4 | 0.00 | 0.00 | 0.00 | 66 | 1018.1 |
| 20260830155555 | 20 | 234 | 1.6 | 6.4 | 0.00 | 0.00 | 0.00 | 65 | 1018.2 |
| 20260830155055 | 20 | 271 | 3.2 | 9.7 | 0.00 | 0.00 | 0.00 | 66 | 1018.2 |
| 20260830154554 | 20 | 203 | 4.8 | 9.7 | 0.00 | 0.00 | 0.00 | 65 | 1018.2 |
| 20260830154054 | 20 | 200 | 3.2 | 9.7 | 0.00 | 0.00 | 0.00 | 63 | 1018.1 |
| 20260830153552 | 20 | 219 | 1.6 | 6.4 | 0.00 | 0.00 | 0.00 | 65 | 1018.2 |
| 20260830153052 | 20 | 178 | 0.0 | 11.3 | 0.00 | 0.00 | 0.00 | 63 | 1018.2 |
| 20260830152552 | 20 | 187 | 3.2 | 11.3 | 0.00 | 0.00 | 0.00 | 64 | 1018.3 |
| 20260830152051 | 20 | 209 | 3.2 | 11.3 | 0.00 | 0.00 | 0.00 | 65 | 1018.3 |
| 20260830151550 | 20 | 246 | 1.6 | 9.7 | 0.00 | 0.00 | 0.00 | 64 | 1018.4 |
| 20260830151049 | 20 | 203 | 0.0 | 8.0 | 0.00 | 0.00 | 0.00 | 66 | 1018.3 |
| 20260830150549 | 20 | 268 | 3.2 | 9.7 | 0.00 | 0.00 | 0.00 | 66 | 1018.2 |
| 20260830150112 | 20 | 217 | 4.8 | 9.7 | 0.00 | 0.00 | 0.00 | 66 | 1018.2 |
| 20260830145548 | 20 | 182 | 4.8 | 9.7 | 0.00 | 0.00 | 0.00 | 66 | 1018.3 |
| 20260830145048 | 20 | 212 | 4.8 | 9.7 | 0.00 | 0.00 | 0.00 | 64 | 1018.2 |
| 20260830144547 | 20 | 265 | 1.6 | 8.0 | 0.00 | 0.00 | 0.00 | 63 | 1018.3 |
| 20260830144046 | 20 | 201 | 1.6 | 12.9 | 0.00 | 0.00 | 0.00 | 66 | 1018.3 |
| 20260830143545 | 19 | 232 | 6.4 | 12.9 | 0.00 | 0.00 | 0.00 | 66 | 1018.3 |
| 20260830143045 | 19 | 231 | 3.2 | 11.3 | 0.00 | 0.00 | 0.00 | 68 | 1018.4 |
| 20260830142544 | 18 | 190 | 1.6 | 9.7 | 0.00 | 0.00 | 0.00 | 68 | 1018.4 |
| 20260830142042 | 18 | 241 | 1.6 | 11.3 | 0.00 | 0.00 | 0.00 | 68 | 1018.3 |
| 20260830141539 | 18 | 204 | 4.8 | 14.5 | 0.00 | 0.00 | 0.00 | 68 | 1018.4 |
| 20260830141037 | 18 | 186 | 9.7 | 17.7 | 0.00 | 0.00 | 0.00 | 67 | 1018.3 |
| 20260830140537 | 18 | 193 | 8.0 | 17.7 | 0.00 | 0.00 | 0.00 | 69 | 1018.4 |
| 20260830140038 | 17 | 126 | 8.0 | 12.9 | 0.00 | 0.00 | 0.00 | 69 | 1018.4 |
| 20260830135536 | 17 | 178 | 4.8 | 12.9 | 0.00 | 0.00 | 0.00 | 69 | 1018.5 |
| 20260830135035 | 17 | 186 | 4.8 | 14.5 | 0.00 | 0.00 | 0.00 | 70 | 1018.5 |
| 20260830134540 | 17 | 182 | 6.4 | 12.9 | 0.00 | 0.00 | 0.00 | 70 | 1018.4 |
| 20260830134033 | 17 | 160 | 6.4 | 14.5 | 0.00 | 0.00 | 0.00 | 70 | 1018.4 |
| 20260830133532 | 17 | 164 | 3.2 | 16.1 | 0.00 | 0.00 | 0.00 | 70 | 1018.5 |
| 20260830133036 | 17 | 199 | 9.7 | 16.1 | 0.00 | 0.00 | 0.00 | 69 | 1018.5 |
| 20260830132535 | 17 | 209 | 6.4 | 16.1 | 0.00 | 0.00 | 0.00 | 70 | 1018.6 |
| 20260830132030 | 17 | 159 | 9.7 | 16.1 | 0.00 | 0.00 | 0.00 | 70 | 1018.8 |
| 20260830131529 | 16 | 215 | 6.4 | 14.5 | 0.00 | 0.00 | 0.00 | 71 | 1018.8 |
| 20260830131028 | 16 | 189 | 6.4 | 14.5 | 0.00 | 0.00 | 0.00 | 71 | 1018.8 |
| 20260830130530 | 16 | 171 | 6.4 | 19.3 | 0.00 | 0.00 | 0.00 | 71 | 1018.7 |
| 20260830130027 | 16 | 155 | 8.0 | 19.3 | 0.00 | 0.00 | 0.00 | 71 | 1018.8 |
| 20260830125525 | 16 | 205 | 6.4 | 16.1 | 0.00 | 0.00 | 0.00 | 71 | 1018.7 |
| 20260830125025 | 16 | 198 | 6.4 | 14.5 | 0.00 | 0.00 | 0.00 | 72 | 1018.8 |
| 20260830124527 | 16 | 189 | 8.0 | 14.5 | 0.00 | 0.00 | 0.00 | 72 | 1018.8 |
| 20260830124026 | 16 | 195 | 6.4 | 16.1 | 0.00 | 0.00 | 0.00 | 72 | 1018.8 |
| 20260830123523 | 16 | 197 | 9.7 | 16.1 | 0.00 | 0.00 | 0.00 | 73 | 1018.9 |
| 20260830123022 | 16 | 195 | 6.4 | 19.3 | 0.00 | 0.00 | 0.00 | 74 | 1019.0 |
| 20260830122522 | 16 | 186 | 9.7 | 19.3 | 0.00 | 0.00 | 0.00 | 74 | 1019.0 |
| 20260830122021 | 16 | 213 | 8.0 | 20.9 | 0.00 | 0.00 | 0.00 | 74 | 1019.0 |
| 20260830121520 | 15 | 189 | 8.0 | 17.7 | 0.00 | 0.00 | 0.00 | 74 | 1019.0 |
| 20260830121020 | 16 | 201 | 6.4 | 17.7 | 0.00 | 0.00 | 0.00 | 74 | 1019.0 |
| 20260830120520 | 16 | 196 | 9.7 | 17.7 | 0.00 | 0.00 | 0.00 | 73 | 1019.0 |
| 20260830120022 | 16 | 188 | 8.0 | 17.7 | 0.00 | 0.00 | 0.00 | 74 | 1019.1 |
| 20260830115519 | 16 | 200 | 6.4 | 14.5 | 0.00 | 0.00 | 0.00 | 73 | 1019.1 |
| 20260830115019 | 16 | 179 | 4.8 | 16.1 | 0.00 | 0.00 | 0.00 | 73 | 1019.1 |
| 20260830114518 | 16 | 219 | 3.2 | 16.1 | 0.00 | 0.00 | 0.00 | 73 | 1019.2 |
| 20260830114018 | 16 | 193 | 6.4 | 16.1 | 0.00 | 0.00 | 0.00 | 73 | 1019.3 |
| 20260830113517 | 16 | 200 | 8.0 | 19.3 | 0.00 | 0.00 | 0.00 | 73 | 1019.3 |
| 20260830113018 | 15 | 201 | 8.0 | 16.1 | 0.00 | 0.00 | 0.00 | 74 | 1019.3 |